Skip Page Navigation
NASA JPL Caltech
NASA Logo - Jet Propulsion Laboratory + View the NASA Portal
+ Center for Near-Earth Object Studies
JPL Home Earth Solar System Stars & Galaxies Technology
JPL Solar System Dynamics
BODIES ORBITS EPHEMERIDES TOOLS PHYSICAL DATA DISCOVERY FAQ SITE MAP
JPL Small-Body Database Browser
Search: [ help ]  
97540 (2000 DN41)
Classification: Main-belt Asteroid          SPK-ID: 2097540
Ephemeris | Orbit Diagram | Orbital Elements | Mission Design | Physical Parameters | Discovery Circumstances | Close-Approach Data ]

[ show orbit diagram ]
Orbital Elements at Epoch 2459000.5 (2020-May-31.0) TDB
Reference: JPL 20 (heliocentric ecliptic J2000)
 Element Value Uncertainty (1-sigma)   Units 
e .1752193409134511 4.1228e-08  
a 3.060139013012951 2.6971e-08 au
q 2.523943472049282 1.3166e-07 au
i 2.099176299566183 4.5277e-06 deg
node 126.9056587166139 0.00013993 deg
peri 127.8165139633351 0.00014143 deg
M 206.5099395888871 2.6195e-05 deg
tp 2459834.157989343942
(2022-Sep-11.65798934)
0.00015055 TDB
period 1955.285413009649
5.35
2.585e-05
7.077e-08
d
yr
n .1841163431204012 2.4341e-09 deg/d
Q 3.596334553976618 3.1697e-08 au
  Orbit Determination Parameters
   # obs. used (total)      933  
   data-arc span      7291 days (19.96 yr)  
   first obs. used      2000-02-11  
   last obs. used      2020-01-28  
   planetary ephem.      DE431  
   SB-pert. ephem.      SB431-N16  
   condition code      0  
   norm. resid. RMS      .54012  
   source      ORB  
   producer      Otto Matic  
   solution date      2020-Feb-24 00:18:32  

Additional Information
 Earth MOID = 1.5099 au 
 Jupiter MOID = 1.45906 au 
 T_jup = 3.209 
[ show covariance matrix ]

Ephemeris | Orbit Diagram | Orbital Elements | Mission Design | Physical Parameters | Discovery Circumstances | Close-Approach Data ]

Physical Parameter Table
Parameter Symbol Value Units Sigma Reference Notes
absolute magnitude H 14.4   n/a MPO453424  
diameter diameter 6.566 km 0.353 urn:nasa:pds:neowise_diameters_albedos::2.0[mainbelt] (http://adsabs.harvard.edu/abs/2011ApJ...741...68M)  
geometric albedo albedo 0.094   0.038 urn:nasa:pds:neowise_diameters_albedos::2.0[mainbelt] (http://adsabs.harvard.edu/abs/2011ApJ...741...68M)  

97540 (2000 DN41)          Discovered 2000-Feb-29 by LINEAR at Socorro
Reference: 20050224/Numbers.arcLast Updated: 2005-02-28

[ show close-approach data ]
Alternate Designations
 2000 DN41 = 2002 SK24 
Ephemeris | Orbit Diagram | Orbital Elements | Mission Design | Physical Parameters | Discovery Circumstances | Close-Approach Data ]
ABOUT SSD CREDITS/AWARDS PRIVACY/COPYRIGHT GLOSSARY LINKS
FirstGov 2020-Jul-15 05:35 UT
(server date/time)  
NASA Home Page
Site Manager:   Ryan S. Park
Webmaster  Alan B. Chamberlin